Time,TemperatureF,DewpointF,PressureIn,WindDirection,WindDirectionDegrees,WindSpeedMPH,WindSpeedGustMPH,Humidity,HourlyPrecipIn,Conditions,Clouds,dailyrainin,SoftwareType,DateUTC
2013-01-29 00:04:00,32.0,31.0,30.18,NW,304,1.0,1.0,95,-99.99,,,-99.99,,2013-01-29 05:04:00,
2013-01-29 00:12:00,32.0,31.0,30.18,NW,304,1.0,1.0,95,-99.99,,,-99.99,,2013-01-29 05:12:00,
2013-01-29 00:22:00,32.0,31.0,30.18,WNW,283,1.0,2.0,95,-99.99,,,-99.99,,2013-01-29 05:22:00,
2013-01-29 00:32:00,32.0,31.0,30.18,West,276,1.0,2.0,95,-99.99,,,-99.99,,2013-01-29 05:32:00,
2013-01-29 00:42:00,32.0,31.0,30.18,West,276,1.0,2.0,95,-99.99,,,-99.99,,2013-01-29 05:42:00,
2013-01-29 00:52:00,32.0,31.0,30.18,WNW,287,1.0,2.0,95,-99.99,,,-99.99,,2013-01-29 05:52:00,
2013-01-29 01:02:00,32.0,31.0,30.17,WNW,287,0.0,2.0,95,-99.99,,,-99.99,,2013-01-29 06:02:00,
2013-01-29 01:11:00,32.0,31.0,30.17,WNW,287,0.0,2.0,95,-99.99,,,-99.99,,2013-01-29 06:11:00,
2013-01-29 01:21:00,32.0,31.0,30.18,WNW,290,0.0,1.0,95,-99.99,,,-99.99,,2013-01-29 06:21:00,
2013-01-29 01:32:00,32.0,31.0,30.18,WNW,290,0.0,1.0,95,-99.99,,,-99.99,,2013-01-29 06:32:00,
2013-01-29 01:42:00,32.0,31.0,30.18,WNW,290,0.0,1.0,95,-99.99,,,-99.99,,2013-01-29 06:42:00,
2013-01-29 01:52:00,32.0,31.0,30.18,WNW,283,0.0,1.0,95,-99.99,,,-99.99,,2013-01-29 06:52:00,
2013-01-29 02:02:00,32.0,31.0,30.18,WNW,283,0.0,1.0,95,-99.99,,,-99.99,,2013-01-29 07:02:00,
2013-01-29 02:11:00,32.0,31.0,30.18,WNW,283,0.0,1.0,95,-99.99,,,-99.99,,2013-01-29 07:11:00,
2013-01-29 02:21:00,32.0,31.0,30.19,WNW,283,0.0,1.0,95,-99.99,,,-99.99,,2013-01-29 07:21:00,
2013-01-29 02:32:00,31.0,30.0,30.20,WNW,283,0.0,1.0,95,-99.99,,,-99.99,,2013-01-29 07:32:00,
2013-01-29 02:42:00,31.0,30.0,30.20,WNW,283,0.0,1.0,95,-99.99,,,-99.99,,2013-01-29 07:42:00,
2013-01-29 02:52:00,31.0,30.0,30.19,WNW,283,0.0,0.0,95,-99.99,,,-99.99,,2013-01-29 07:52:00,
2013-01-29 03:02:00,31.0,30.0,30.20,WNW,283,0.0,0.0,95,-99.99,,,-99.99,,2013-01-29 08:02:00,
2013-01-29 03:11:00,31.0,30.0,30.20,WNW,283,0.0,0.0,95,-99.99,,,-99.99,,2013-01-29 08:11:00,
2013-01-29 03:21:00,31.0,30.0,30.20,WNW,283,0.0,1.0,95,-99.99,,,-99.99,,2013-01-29 08:21:00,
2013-01-29 03:32:00,31.0,30.0,30.20,WNW,284,0.0,1.0,95,-99.99,,,-99.99,,2013-01-29 08:32:00,
2013-01-29 03:42:00,31.0,30.0,30.20,WNW,284,0.0,1.0,95,-99.99,,,-99.99,,2013-01-29 08:42:00,
2013-01-29 03:52:00,31.0,30.0,30.20,West,278,0.0,1.0,95,-99.99,,,-99.99,,2013-01-29 08:52:00,
2013-01-29 04:02:00,31.0,30.0,30.20,East,101,0.0,2.0,95,-99.99,,,-99.99,,2013-01-29 09:02:00,
2013-01-29 04:11:00,31.0,30.0,30.20,East,101,0.0,2.0,95,-99.99,,,-99.99,,2013-01-29 09:11:00,
2013-01-29 04:21:00,31.0,30.0,30.20,ENE,71,0.0,1.0,95,-99.99,,,-99.99,,2013-01-29 09:21:00,
2013-01-29 04:32:00,31.0,30.0,30.20,NE,56,0.0,2.0,95,-99.99,,,-99.99,,2013-01-29 09:32:00,
2013-01-29 04:42:00,31.0,30.0,30.20,NE,56,0.0,2.0,95,-99.99,,,-99.99,,2013-01-29 09:42:00,
2013-01-29 04:52:00,31.0,30.0,30.21,NE,49,1.0,2.0,95,-99.99,,,-99.99,,2013-01-29 09:52:00,
2013-01-29 05:01:00,31.0,30.0,30.21,NE,49,0.0,1.0,95,-99.99,,,-99.99,,2013-01-29 10:01:00,
2013-01-29 05:11:00,31.0,30.0,30.21,NE,49,0.0,1.0,95,-99.99,,,-99.99,,2013-01-29 10:11:00,
2013-01-29 05:21:00,31.0,30.0,30.22,ENE,74,1.0,2.0,95,-99.99,,,-99.99,,2013-01-29 10:21:00,
2013-01-29 05:32:00,31.0,30.0,30.22,North,5,1.0,3.0,95,-99.99,,,-99.99,,2013-01-29 10:32:00,
2013-01-29 05:42:00,31.0,30.0,30.22,North,5,1.0,3.0,95,-99.99,,,-99.99,,2013-01-29 10:42:00,
2013-01-29 05:52:00,31.0,30.0,30.23,NNE,23,0.0,2.0,95,-99.99,,,-99.99,,2013-01-29 10:52:00,
2013-01-29 06:02:00,31.0,30.0,30.24,NNE,26,0.0,1.0,95,-99.99,,,-99.99,,2013-01-29 11:02:00,
2013-01-29 06:11:00,31.0,30.0,30.24,NNE,26,0.0,1.0,95,-99.99,,,-99.99,,2013-01-29 11:11:00,
2013-01-29 06:22:00,31.0,30.0,30.25,NE,41,1.0,3.0,95,-99.99,,,-99.99,,2013-01-29 11:22:00,
2013-01-29 06:32:00,31.0,30.0,30.25,ENE,73,1.0,3.0,95,-99.99,,,-99.99,,2013-01-29 11:32:00,
2013-01-29 06:42:00,31.0,30.0,30.25,ENE,73,1.0,3.0,95,-99.99,,,-99.99,,2013-01-29 11:42:00,
2013-01-29 06:53:00,30.0,29.0,30.25,ENE,71,2.0,4.0,95,-99.99,,,-99.99,,2013-01-29 11:53:00,
2013-01-29 07:02:00,30.0,29.0,30.26,NE,49,1.0,3.0,95,-99.99,,,-99.99,,2013-01-29 12:02:00,
2013-01-29 07:12:00,30.0,29.0,30.26,NE,49,1.0,3.0,95,-99.99,,,-99.99,,2013-01-29 12:12:00,
2013-01-29 07:22:00,30.0,29.0,30.27,ENE,71,1.0,3.0,95,-99.99,,,-99.99,,2013-01-29 12:22:00,
2013-01-29 07:33:00,30.0,29.0,30.29,North,4,0.0,2.0,95,-99.99,,,-99.99,,2013-01-29 12:33:00,
2013-01-29 07:43:00,30.0,29.0,30.29,North,4,0.0,2.0,95,-99.99,,,-99.99,,2013-01-29 12:43:00,
2013-01-29 07:53:00,29.0,28.0,30.29,East,82,0.0,2.0,95,-99.99,,,-99.99,,2013-01-29 12:53:00,
2013-01-29 08:02:00,30.0,29.0,30.29,SE,136,0.0,2.0,95,-99.99,,,-99.99,,2013-01-29 13:02:00,
2013-01-29 08:12:00,30.0,29.0,30.29,SE,136,0.0,2.0,95,-99.99,,,-99.99,,2013-01-29 13:12:00,
2013-01-29 08:22:00,30.0,29.0,30.31,ENE,61,0.0,1.0,95,-99.99,,,-99.99,,2013-01-29 13:22:00,
2013-01-29 08:32:00,30.0,29.0,30.32,ENE,58,0.0,1.0,95,-99.99,,,-99.99,,2013-01-29 13:32:00,
2013-01-29 08:43:00,30.0,29.0,30.32,ENE,58,0.0,1.0,95,-99.99,,,-99.99,,2013-01-29 13:43:00,
2013-01-29 08:53:00,30.0,29.0,30.32,ENE,69,0.0,0.0,95,-99.99,,,-99.99,,2013-01-29 13:53:00,
2013-01-29 09:02:00,30.0,29.0,30.32,East,79,0.0,2.0,95,-99.99,,,-99.99,,2013-01-29 14:02:00,
2013-01-29 09:12:00,30.0,29.0,30.32,SE,142,0.0,1.0,95,-99.99,,,-99.99,,2013-01-29 14:12:00,
2013-01-29 09:22:00,30.0,29.0,30.32,SE,142,0.0,1.0,95,-99.99,,,-99.99,,2013-01-29 14:22:00,
2013-01-29 09:33:00,30.0,29.0,30.32,ENE,64,0.0,1.0,95,-99.99,,,-99.99,,2013-01-29 14:33:00,
2013-01-29 09:43:00,30.0,29.0,30.32,ENE,64,0.0,1.0,95,-99.99,,,-99.99,,2013-01-29 14:43:00,
2013-01-29 09:53:00,31.0,30.0,30.33,East,82,0.0,1.0,95,-99.99,,,-99.99,,2013-01-29 14:53:00,
2013-01-29 10:02:00,31.0,30.0,30.34,East,82,0.0,1.0,95,-99.99,,,-99.99,,2013-01-29 15:02:00,
2013-01-29 10:12:00,31.0,30.0,30.34,East,82,0.0,1.0,95,-99.99,,,-99.99,,2013-01-29 15:12:00,
2013-01-29 10:22:00,31.0,30.0,30.35,East,82,0.0,1.0,95,-99.99,,,-99.99,,2013-01-29 15:22:00,
2013-01-29 10:33:00,31.0,30.0,30.35,East,84,0.0,1.0,95,-99.99,,,-99.99,,2013-01-29 15:33:00,
2013-01-29 10:43:00,31.0,30.0,30.35,East,84,0.0,1.0,95,-99.99,,,-99.99,,2013-01-29 15:43:00,
2013-01-29 10:53:00,32.0,31.0,30.35,East,83,0.0,1.0,95,-99.99,,,-99.99,,2013-01-29 15:53:00,
2013-01-29 11:03:00,32.0,31.0,30.35,East,83,0.0,1.0,95,-99.99,,,-99.99,,2013-01-29 16:03:00,
2013-01-29 11:12:00,32.0,31.0,30.35,East,83,0.0,1.0,95,-99.99,,,-99.99,,2013-01-29 16:12:00,
2013-01-29 11:23:00,33.0,31.0,30.33,ENE,74,1.0,2.0,94,-99.99,,,-99.99,,2013-01-29 16:23:00,
2013-01-29 11:33:00,34.0,32.0,30.33,East,94,1.0,3.0,94,-99.99,,,-99.99,,2013-01-29 16:33:00,
2013-01-29 11:43:00,34.0,32.0,30.33,East,94,1.0,3.0,94,-99.99,,,-99.99,,2013-01-29 16:43:00,
2013-01-29 11:53:00,35.0,33.0,30.33,East,85,1.0,3.0,92,-99.99,,,-99.99,,2013-01-29 16:53:00,
2013-01-29 12:03:00,35.0,33.0,30.34,SSE,168,0.0,2.0,91,-99.99,,,-99.99,,2013-01-29 17:03:00,
2013-01-29 12:12:00,35.0,33.0,30.34,SSE,168,0.0,2.0,91,-99.99,,,-99.99,,2013-01-29 17:12:00,
2013-01-29 12:22:00,35.0,32.0,30.33,West,276,0.0,1.0,90,-99.99,,,-99.99,,2013-01-29 17:22:00,
2013-01-29 12:33:00,36.0,33.0,30.32,SE,140,0.0,1.0,90,-99.99,,,-99.99,,2013-01-29 17:33:00,
2013-01-29 12:42:00,36.0,33.0,30.32,SE,140,0.0,1.0,90,-99.99,,,-99.99,,2013-01-29 17:42:00,
2013-01-29 12:52:00,36.0,33.0,30.32,West,278,0.0,0.0,88,-99.99,,,-99.99,,2013-01-29 17:52:00,
2013-01-29 13:04:00,37.0,34.0,30.32,ENE,58,0.0,1.0,89,-99.99,,,-99.99,,2013-01-29 18:04:00,
2013-01-29 13:12:00,37.0,34.0,30.32,ENE,58,0.0,1.0,89,-99.99,,,-99.99,,2013-01-29 18:12:00,
2013-01-29 13:22:00,37.0,34.0,30.32,SSE,158,0.0,1.0,89,-99.99,,,-99.99,,2013-01-29 18:22:00,
2013-01-29 13:33:00,38.0,34.0,30.32,SSE,158,0.0,1.0,87,-99.99,,,-99.99,,2013-01-29 18:33:00,
2013-01-29 13:42:00,38.0,34.0,30.32,SSE,158,0.0,1.0,87,-99.99,,,-99.99,,2013-01-29 18:42:00,
2013-01-29 13:52:00,38.0,34.0,30.32,South,173,0.0,1.0,86,-99.99,,,-99.99,,2013-01-29 18:52:00,
2013-01-29 14:03:00,38.0,34.0,30.32,West,266,0.0,3.0,85,-99.99,,,-99.99,,2013-01-29 19:03:00,
2013-01-29 14:12:00,38.0,34.0,30.32,West,266,0.0,3.0,85,-99.99,,,-99.99,,2013-01-29 19:12:00,
2013-01-29 14:23:00,40.0,35.0,30.31,SW,215,1.0,4.0,83,-99.99,,,-99.99,,2013-01-29 19:23:00,
2013-01-29 14:32:00,40.0,35.0,30.30,SE,125,1.0,3.0,82,-99.99,,,-99.99,,2013-01-29 19:32:00,
2013-01-29 14:42:00,40.0,35.0,30.30,SE,125,1.0,3.0,82,-99.99,,,-99.99,,2013-01-29 19:42:00,
2013-01-29 14:52:00,40.0,35.0,30.30,SE,131,1.0,3.0,82,-99.99,,,-99.99,,2013-01-29 19:52:00,
2013-01-29 15:02:00,40.0,35.0,30.31,SSW,212,0.0,3.0,81,-99.99,,,-99.99,,2013-01-29 20:02:00,
2013-01-29 15:13:00,40.0,35.0,30.31,SSW,212,0.0,3.0,81,-99.99,,,-99.99,,2013-01-29 20:13:00,
2013-01-29 15:22:00,41.0,35.0,30.32,WSW,253,1.0,3.0,80,-99.99,,,-99.99,,2013-01-29 20:22:00,
2013-01-29 15:33:00,42.0,36.0,30.33,SW,228,0.0,2.0,79,-99.99,,,-99.99,,2013-01-29 20:33:00,
2013-01-29 15:42:00,42.0,36.0,30.33,SW,228,0.0,2.0,79,-99.99,,,-99.99,,2013-01-29 20:42:00,
2013-01-29 15:53:00,42.0,35.0,30.33,SE,138,0.0,2.0,77,-99.99,,,-99.99,,2013-01-29 20:53:00,
2013-01-29 16:03:00,40.0,35.0,30.33,SSW,205,1.0,5.0,81,-99.99,,,-99.99,,2013-01-29 21:03:00,
2013-01-29 16:12:00,40.0,35.0,30.33,SSW,205,1.0,5.0,81,-99.99,,,-99.99,,2013-01-29 21:12:00,
2013-01-29 16:22:00,38.0,33.0,30.32,SSE,156,1.0,5.0,83,-99.99,,,-99.99,,2013-01-29 21:22:00,
2013-01-29 16:34:00,38.0,34.0,30.32,SSE,149,1.0,7.0,85,-99.99,,,-99.99,,2013-01-29 21:34:00,
2013-01-29 16:42:00,38.0,34.0,30.32,SSE,149,1.0,7.0,85,-99.99,,,-99.99,,2013-01-29 21:42:00,
2013-01-29 16:53:00,37.0,33.0,30.32,South,190,1.0,5.0,86,-99.99,,,-99.99,,2013-01-29 21:53:00,
2013-01-29 17:03:00,37.0,34.0,30.32,South,177,1.0,4.0,87,-99.99,,,-99.99,,2013-01-29 22:03:00,
2013-01-29 17:12:00,37.0,34.0,30.32,South,177,1.0,4.0,87,-99.99,,,-99.99,,2013-01-29 22:12:00,
2013-01-29 17:22:00,36.0,33.0,30.32,SSE,153,1.0,5.0,88,-99.99,,,-99.99,,2013-01-29 22:22:00,
2013-01-29 17:33:00,36.0,33.0,30.33,SSE,150,1.0,5.0,88,-99.99,,,-99.99,,2013-01-29 22:33:00,
2013-01-29 17:42:00,36.0,33.0,30.33,SSE,150,1.0,5.0,88,-99.99,,,-99.99,,2013-01-29 22:42:00,
2013-01-29 17:53:00,35.0,32.0,30.36,WSW,253,0.0,5.0,90,-99.99,,,-99.99,,2013-01-29 22:53:00,
2013-01-29 18:02:00,35.0,32.0,30.37,SW,215,1.0,2.0,90,-99.99,,,-99.99,,2013-01-29 23:02:00,
2013-01-29 18:12:00,35.0,32.0,30.37,SW,215,1.0,2.0,90,-99.99,,,-99.99,,2013-01-29 23:12:00,
2013-01-29 18:23:00,35.0,32.0,30.36,SSE,162,1.0,3.0,90,-99.99,,,-99.99,,2013-01-29 23:23:00,
2013-01-29 18:33:00,35.0,33.0,30.35,SE,143,1.0,4.0,91,-99.99,,,-99.99,,2013-01-29 23:33:00,
2013-01-29 18:42:00,35.0,33.0,30.35,SE,143,1.0,4.0,91,-99.99,,,-99.99,,2013-01-29 23:42:00,
2013-01-29 18:53:00,35.0,33.0,30.33,SE,139,2.0,7.0,92,-99.99,,,-99.99,,2013-01-29 23:53:00,
2013-01-29 19:03:00,35.0,33.0,30.35,South,183,2.0,9.0,93,-99.99,,,-99.99,,2013-01-30 00:03:00,
2013-01-29 19:12:00,35.0,33.0,30.35,South,183,2.0,9.0,93,-99.99,,,-99.99,,2013-01-30 00:12:00,
2013-01-29 19:22:00,34.0,32.0,30.33,SSE,158,2.0,7.0,93,-99.99,,,-99.99,,2013-01-30 00:22:00,
2013-01-29 19:32:00,34.0,32.0,30.33,East,98,2.0,6.0,93,-99.99,,,-99.99,,2013-01-30 00:32:00,
2013-01-29 19:43:00,34.0,32.0,30.33,East,98,2.0,6.0,93,-99.99,,,-99.99,,2013-01-30 00:43:00,
2013-01-29 19:53:00,34.0,32.0,30.32,ESE,122,2.0,6.0,93,-99.99,,,-99.99,,2013-01-30 00:53:00,
2013-01-29 20:02:00,34.0,32.0,30.32,East,84,2.0,5.0,93,-99.99,,,-99.99,,2013-01-30 01:02:00,
2013-01-29 20:12:00,34.0,32.0,30.32,East,84,2.0,5.0,93,-99.99,,,-99.99,,2013-01-30 01:12:00,
2013-01-29 20:22:00,34.0,32.0,30.34,SE,134,1.0,5.0,93,-99.99,,,-99.99,,2013-01-30 01:22:00,
2013-01-29 20:32:00,34.0,32.0,30.34,ESE,115,1.0,3.0,93,-99.99,,,-99.99,,2013-01-30 01:32:00,
2013-01-29 20:43:00,34.0,32.0,30.34,ESE,115,1.0,3.0,93,-99.99,,,-99.99,,2013-01-30 01:43:00,
2013-01-29 20:52:00,34.0,32.0,30.33,ESE,116,1.0,2.0,93,-99.99,,,-99.99,,2013-01-30 01:52:00,
2013-01-29 21:02:00,34.0,32.0,30.33,ESE,105,1.0,2.0,94,-99.99,,,-99.99,,2013-01-30 02:02:00,
2013-01-29 21:12:00,34.0,32.0,30.33,ESE,105,1.0,2.0,94,-99.99,,,-99.99,,2013-01-30 02:12:00,
2013-01-29 21:22:00,35.0,33.0,30.33,East,91,1.0,2.0,94,-99.99,,,-99.99,,2013-01-30 02:22:00,
2013-01-29 21:33:00,35.0,33.0,30.33,ESE,103,2.0,3.0,94,-99.99,,,-99.99,,2013-01-30 02:33:00,
2013-01-29 21:42:00,35.0,33.0,30.33,ESE,103,2.0,3.0,94,-99.99,,,-99.99,,2013-01-30 02:42:00,
2013-01-29 21:52:00,35.0,33.0,30.34,East,97,1.0,3.0,94,-99.99,,,-99.99,,2013-01-30 02:52:00,
2013-01-29 22:03:00,35.0,33.0,30.33,SE,125,1.0,3.0,94,-99.99,,,-99.99,,2013-01-30 03:03:00,
2013-01-29 22:12:00,35.0,33.0,30.33,SE,125,1.0,3.0,94,-99.99,,,-99.99,,2013-01-30 03:12:00,
2013-01-29 22:22:00,35.0,33.0,30.32,ESE,108,1.0,4.0,94,-99.99,,,-99.99,,2013-01-30 03:22:00,
2013-01-29 22:32:00,35.0,33.0,30.32,SE,131,1.0,3.0,94,-99.99,,,-99.99,,2013-01-30 03:32:00,
2013-01-29 22:42:00,35.0,33.0,30.32,SE,131,1.0,3.0,94,-99.99,,,-99.99,,2013-01-30 03:42:00,
2013-01-29 22:52:00,35.0,33.0,30.30,SE,135,2.0,4.0,94,-99.99,,,-99.99,,2013-01-30 03:52:00,
2013-01-29 23:02:00,36.0,35.0,30.30,SE,138,2.0,8.0,95,-99.99,,,-99.99,,2013-01-30 04:02:00,
2013-01-29 23:12:00,36.0,35.0,30.30,SE,138,2.0,8.0,95,-99.99,,,-99.99,,2013-01-30 04:12:00,
2013-01-29 23:22:00,36.0,35.0,30.31,East,87,2.0,8.0,95,-99.99,,,-99.99,,2013-01-30 04:22:00,
2013-01-29 23:32:00,36.0,35.0,30.32,ESE,122,1.0,3.0,95,-99.99,,,-99.99,,2013-01-30 04:32:00,
2013-01-29 23:42:00,36.0,35.0,30.32,ESE,122,1.0,3.0,95,-99.99,,,-99.99,,2013-01-30 04:42:00,
2013-01-29 23:52:00,36.0,35.0,30.31,SE,127,1.0,2.0,95,-99.99,,,-99.99,,2013-01-30 04:52:00,